Find Starlink 30216

NORAD ID: 57451 Int'l Des: 2023-105 Owner: SPXS Country: US Constellation: starlink operational
LEOCIRCULAR

現在のビュー

3D地球を読み込み中...

About Starlink 30216

Starlink 30216 (NORAD 57451) is a starlink constellation satellite (v2 mini) launched Jul 24, 2023 by SPXS of US. It operates in LEO, CIRCULAR orbit with a mass of 730.00 kg.

次回通過

Passes for default location (London). Set your location on the main map for personalized predictions.

高度履歴

Loading altitude history...

軌道要素

1 57451U 23105X 26264.95826821 -.00000180 00000-0 29896-5 0 9993
2 57451 43.0033 231.0095 0000975 269.5546 90.5194 15.27574691175441
Epoch: Sep 21, 2026 • Age: 6 hours

現在のステータス

高度 489.3 km
遠地点 / 近地点 N/A
速度 7.62 km/s
衛星直下点 -26.49°S, 119.92°E
打ち上げ日 Jul 24, 2023
運用期間 3.1 years
タイプ internet

技術仕様

分類 Payload
質量 730.00 kg
乾燥質量 700.00 kg
長さ 0.30 m
スパン 29.00 m
形状 ? Box + pan
製造者 SPXS
バスタイプ Starlink V2M
フェーズステータス In Orbit
所有者/国 SPXS/US

Most Searched